When you browse on this site, cookies collect data to enhance your experience and personalize the content and advertising you see.
Visit our Privacy Policy to learn more. By continuing to use the site, you agree to this use of cookies and data.
  • In Latvia
  • List of Countries
  • For 7 days
  • Water Temperature
  • Weather Map
  • Weather Widgets
  • user-avatar
    Login

    Hourly Weather Encamp

    Today, 3 June, Wednesday

    Time Temperature Precipitation Wind Pressure Humidity
    00:00 +9°C° 0 mm 1 mps 622 mmHg 93%
    01:00 +9°C° 0 mm 1 mps 621 mmHg 93%
    02:00 +9°C° 0 mm 1 mps 621 mmHg 93%
    03:00 +9°C° 0 mm 1 mps 620 mmHg 93%
    04:00 +10°C° 0 mm 1 mps 621 mmHg 91%
    05:00 +11°C° 0 mm 1 mps 621 mmHg 89%
    06:00 +12°C° 0 mm 1 mps 621 mmHg 85%
    07:00 +13°C° 0.7 mm 1 mps 621 mmHg 82%
    08:00 +14°C° 0.7 mm 1 mps 622 mmHg 78%
    09:00 +16°C° 0.7 mm 1 mps 622 mmHg 75%
    10:00 +16°C° 1.2 mm 1 mps 621 mmHg 75%
    11:00 +15°C° 1.2 mm 1 mps 621 mmHg 76%
    12:00 +16°C° 0 mm 1 mps 621 mmHg 77%
    13:00 +16°C° 1 mm 1 mps 620 mmHg 78%
    14:00 +16°C° 1 mm 1 mps 620 mmHg 78%
    15:00 +15°C° 1 mm 2 mps 619 mmHg 79%
    16:00 +14°C° 1 mm 1 mps 619 mmHg 83%
    17:00 +14°C° 1 mm 1 mps 618 mmHg 87%
    18:00 +13°C° 1 mm 1 mps 618 mmHg 91%
    19:00 +12°C° 1.4 mm 1 mps 617 mmHg 94%
    20:00 +11°C° 1.4 mm 1 mps 617 mmHg 96%
    21:00 +10°C° 1.4 mm 1 mps 617 mmHg 98%
    22:00 +10°C° 0.9 mm 1 mps 617 mmHg 98%
    23:00 +10°C° 0.9 mm 1 mps 617 mmHg 98%

    Tomorrow, 4 June, Thursday

    Time Temperature Precipitation Wind Pressure Humidity
    00:00 +10°C° 0.9 mm 1 mps 616 mmHg 98%
    01:00 +9°C° 1 mm 1 mps 616 mmHg 98%
    02:00 +9°C° 1 mm 1 mps 615 mmHg 98%
    03:00 +9°C° 1 mm 1 mps 615 mmHg 98%
    04:00 +8°C° 1.3 mm 1 mps 615 mmHg 98%
    05:00 +8°C° 1.3 mm 1 mps 615 mmHg 98%
    06:00 +8°C° 1.3 mm 1 mps 615 mmHg 97%
    07:00 +8°C° 0.6 mm 1 mps 615 mmHg 95%
    08:00 +8°C° 0.6 mm 1 mps 615 mmHg 93%
    09:00 +8°C° 0.6 mm 1 mps 615 mmHg 91%
    10:00 +9°C° 0.2 mm 1 mps 615 mmHg 87%
    11:00 +9°C° 0.2 mm 1 mps 615 mmHg 82%
    12:00 +10°C° 0.2 mm 1 mps 615 mmHg 77%
    13:00 +10°C° 1.1 mm 1 mps 615 mmHg 81%
    14:00 +8°C° 1.1 mm 2 mps 614 mmHg 85%
    15:00 +7°C° 1.1 mm 2 mps 614 mmHg 89%
    16:00 +7°C° 0.7 mm 2 mps 614 mmHg 89%
    17:00 +7°C° 0.7 mm 2 mps 614 mmHg 89%
    18:00 +6°C° 0.7 mm 2 mps 614 mmHg 89%
    19:00 +6°C° 0.2 mm 2 mps 614 mmHg 91%
    20:00 +5°C° 0.2 mm 2 mps 615 mmHg 92%
    21:00 +5°C° 0.2 mm 2 mps 615 mmHg 94%
    22:00 +4°C° 0 mm 2 mps 615 mmHg 94%
    23:00 +4°C° 0 mm 2 mps 615 mmHg 94%

    Day after tomorrow, 5 June, Friday

    Time Temperature Precipitation Wind Pressure Humidity
    00:00 +4°C° 0 mm 2 mps 616 mmHg 94%
    01:00 +4°C° 0.1 mm 2 mps 616 mmHg 94%
    02:00 +4°C° 0.1 mm 2 mps 616 mmHg 93%
    03:00 +4°C° 0.1 mm 2 mps 616 mmHg 93%
    04:00 +4°C° 0 mm 2 mps 617 mmHg 92%
    05:00 +4°C° 0 mm 2 mps 617 mmHg 91%
    06:00 +4°C° 0 mm 2 mps 617 mmHg 90%
    07:00 +6°C° 0 mm 2 mps 618 mmHg 83%
    08:00 +7°C° 0 mm 2 mps 619 mmHg 76%
    09:00 +9°C° 0 mm 2 mps 619 mmHg 68%
    10:00 +10°C° 0 mm 2 mps 620 mmHg 63%
    11:00 +13°C° 0 mm 2 mps 621 mmHg 57%
    12:00 +15°C° 0 mm 2 mps 622 mmHg 51%
    13:00 +15°C° 0 mm 2 mps 622 mmHg 53%
    14:00 +15°C° 0 mm 2 mps 622 mmHg 54%
    15:00 +15°C° 0 mm 2 mps 622 mmHg 56%
    16:00 +14°C° 0 mm 2 mps 621 mmHg 64%
    17:00 +13°C° 0 mm 2 mps 621 mmHg 72%
    18:00 +12°C° 0 mm 1 mps 621 mmHg 80%
    19:00 +11°C° 0 mm 1 mps 621 mmHg 85%
    20:00 +10°C° 0 mm 1 mps 621 mmHg 89%
    21:00 +8°C° 0 mm 0 mps 621 mmHg 94%
    22:00 +8°C° 0 mm 0 mps 621 mmHg 94%
    23:00 +7°C° 0 mm 0 mps 620 mmHg 94%

    6 June, Saturday

    Time Temperature Precipitation Wind Pressure Humidity
    00:00 +7°C° 0 mm 0 mps 620 mmHg 95%
    01:00 +7°C° 0 mm 0 mps 620 mmHg 95%
    02:00 +6°C° 0 mm 0 mps 620 mmHg 95%
    03:00 +6°C° 0 mm 0 mps 620 mmHg 95%
    04:00 +7°C° 0 mm 0 mps 620 mmHg 92%
    05:00 +8°C° 0 mm 0 mps 621 mmHg 89%
    06:00 +9°C° 0 mm 0 mps 621 mmHg 87%
    07:00 +12°C° 0 mm 1 mps 622 mmHg 79%
    08:00 +13°C° 0 mm 1 mps 622 mmHg 72%
    09:00 +15°C° 0 mm 2 mps 623 mmHg 64%
    10:00 +15°C° 0.1 mm 2 mps 623 mmHg 65%
    11:00 +16°C° 0.1 mm 2 mps 623 mmHg 65%
    12:00 +16°C° 0.1 mm 2 mps 623 mmHg 65%
    13:00 +15°C° 0.5 mm 2 mps 622 mmHg 72%
    14:00 +14°C° 0.5 mm 2 mps 621 mmHg 78%
    15:00 +13°C° 0.5 mm 2 mps 621 mmHg 85%
    16:00 +13°C° 0.6 mm 1 mps 621 mmHg 86%
    17:00 +13°C° 0.6 mm 1 mps 620 mmHg 88%
    18:00 +12°C° 0.6 mm 1 mps 620 mmHg 89%
    19:00 +12°C° 2.2 mm 1 mps 620 mmHg 92%
    20:00 +11°C° 2.2 mm 1 mps 620 mmHg 95%
    21:00 +10°C° 2.2 mm 1 mps 620 mmHg 98%
    22:00 +9°C° 2.7 mm 1 mps 620 mmHg 97%
    23:00 +9°C° 2.7 mm 1 mps 619 mmHg 96%

    7 June, Sunday

    Time Temperature Precipitation Wind Pressure Humidity
    00:00 +7°C° 2.7 mm 0 mps 619 mmHg 96%
    01:00 +7°C° 0 mm 0 mps 619 mmHg 95%
    02:00 +7°C° 0 mm 0 mps 619 mmHg 94%
    03:00 +7°C° 0 mm 0 mps 618 mmHg 93%
    04:00 +7°C° 0.2 mm 0 mps 619 mmHg 93%
    05:00 +8°C° 0.2 mm 0 mps 619 mmHg 92%
    06:00 +8°C° 0.2 mm 0 mps 620 mmHg 92%
    07:00 +10°C° 0.8 mm 1 mps 620 mmHg 92%
    08:00 +10°C° 0.8 mm 1 mps 621 mmHg 91%
    09:00 +10°C° 0.8 mm 2 mps 621 mmHg 91%
    10:00 +10°C° 1.2 mm 2 mps 621 mmHg 91%
    11:00 +11°C° 1.2 mm 1 mps 621 mmHg 91%
    12:00 +11°C° 1.2 mm 1 mps 621 mmHg 91%
    13:00 +10°C° 1 mm 1 mps 621 mmHg 91%
    14:00 +10°C° 1 mm 1 mps 621 mmHg 92%
    15:00 +9°C° 1 mm 1 mps 620 mmHg 93%
    16:00 +8°C° 0.7 mm 2 mps 620 mmHg 93%
    17:00 +7°C° 0.7 mm 2 mps 620 mmHg 94%
    18:00 +7°C° 0.7 mm 2 mps 620 mmHg 94%
    19:00 +6°C° 0.2 mm 2 mps 621 mmHg 94%
    20:00 +7°C° 0.2 mm 1 mps 621 mmHg 94%
    21:00 +6°C° 0.2 mm 1 mps 621 mmHg 95%
    22:00 +6°C° 0.1 mm 1 mps 621 mmHg 94%
    23:00 +6°C° 0.1 mm 1 mps 621 mmHg 94%

    8 June, Monday

    Time Temperature Precipitation Wind Pressure Humidity
    00:00 +6°C° 0.1 mm 1 mps 621 mmHg 93%
    01:00 +5°C° 0.1 mm 1 mps 621 mmHg 94%
    02:00 +5°C° 0.1 mm 1 mps 621 mmHg 94%
    03:00 +5°C° 0.1 mm 1 mps 621 mmHg 94%
    04:00 +5°C° 0.1 mm 1 mps 621 mmHg 94%
    05:00 +5°C° 0.1 mm 1 mps 621 mmHg 94%
    06:00 +5°C° 0.1 mm 1 mps 621 mmHg 94%
    07:00 +5°C° 0 mm 2 mps 621 mmHg 90%
    08:00 +6°C° 0 mm 2 mps 622 mmHg 85%
    09:00 +7°C° 0 mm 2 mps 622 mmHg 80%
    10:00 +8°C° 0.1 mm 2 mps 623 mmHg 70%
    11:00 +10°C° 0.1 mm 2 mps 624 mmHg 59%
    12:00 +12°C° 0.1 mm 2 mps 624 mmHg 49%
    13:00 +12°C° 0.1 mm 2 mps 624 mmHg 49%
    14:00 +13°C° 0.1 mm 2 mps 624 mmHg 49%
    15:00 +13°C° 0.1 mm 2 mps 624 mmHg 50%
    16:00 +12°C° 0.1 mm 2 mps 624 mmHg 57%
    17:00 +10°C° 0.1 mm 2 mps 623 mmHg 64%
    18:00 +9°C° 0.1 mm 2 mps 623 mmHg 71%
    19:00 +7°C° 0 mm 2 mps 623 mmHg 78%
    20:00 +7°C° 0 mm 1 mps 623 mmHg 85%
    21:00 +5°C° 0 mm 1 mps 622 mmHg 91%
    22:00 +4°C° 0 mm 1 mps 622 mmHg 89%
    23:00 +4°C° 0 mm 1 mps 622 mmHg 86%
    Show more